Weather History for Warsaw, Poland

Change the Weather History Date:

Saturday, June 7, 2014

  Actual Average Record
Temperature  
Mean Temperature 64 °F -  
Max Temperature 75 °F 72 °F 89 °F (1998)
Min Temperature 52 °F 53 °F 42 °F (2006)
Degree Days  
Heating Degree Days 2    
Growing Degree Days 14 (Base 50)    
Moisture  
Dew Point 52 °F    
Average Humidity 68    
Maximum Humidity 100    
Minimum Humidity 26    
Precipitation  
Precipitation 0.00 in 0.09 in - ()
Sea Level Pressure  
Sea Level Pressure 30.14 in    
Wind  
Wind Speed 2 mph ()    
Max Wind Speed 7 mph    
Max Gust Speed -    
Visibility 6.9 miles    
Events Fog    
Averages and records for this station are not official NWS values.
T = Trace of Precipitation, MM = Missing Value Source: Averaged Metar Reports

Daily Weather History Graph

Daily Weather History Graph

Search for Another Location

Airport:

Trip Planner

Search our weather history database for the weather conditions in past years. The results will help you decide how hot, cold, wet, or windy it might be!

Date:

Astronomy

Jun. 07, 2014 Rise Set
Actual Time 4:17 AM CEST 8:53 PM CEST
Civil Twilight 3:29 AM CEST 9:41 PM CEST
Nautical Twilight 2:14 AM CEST 10:56 PM CEST
Astronomical Twilight 1:07 AM CEST 12:02 AM CEST
Moon 2:09 PM CEST (6/7) 1:16 AM CEST (6/7)
Length of Visible Light 18h 11m
Length of Day
16h 35m
Waxing Gibbous, 65% of the Moon is Illuminated
Jun 7
Waxing Gibbous
Jun 13
Full
Jun 19
Last Quarter
Jun 27
New
Jul 5
First Quarter

Hourly Weather History & Observations

Time (CEST) Temp. Dew Point Humidity Pressure Visibility Wind Dir Wind Speed Gust Speed Precip Events Conditions
12:00 AM 57 °F 56 °F 95% 30.15 in 6 mi Calm Calm - - Fog Patches of Fog
12:00 AM 57.2 °F 55.4 °F 94% 30.12 in 6.2 mi South 3.5 mph - N/A Fog Shallow Fog
12:30 AM 55.4 °F 55.4 °F 100% 30.12 in 6.2 mi Variable 1.2 mph - N/A Fog Shallow Fog
1:00 AM 53 °F 52 °F 97% 30.15 in 2 mi Calm Calm - - Fog Patches of Fog
1:00 AM 53.6 °F 51.8 °F 94% 30.12 in 2.5 mi NW 2.3 mph - N/A Fog Patches of Fog
1:30 AM 53.6 °F 53.6 °F 100% 30.12 in 4.3 mi Variable 1.2 mph - N/A Fog Fog
2:00 AM 54 °F 54 °F 98% 30.15 in 1 mi Calm Calm - - Fog Partial Fog
2:00 AM 53.6 °F 53.6 °F 100% 30.12 in 0.6 mi Variable 1.2 mph - N/A Fog Fog
2:30 AM 53.6 °F 51.8 °F 94% 30.12 in 0.4 mi Variable 1.2 mph - N/A Fog Fog
3:00 AM 53 °F 53 °F 99% 30.15 in 0 mi Calm Calm - - Fog Heavy Fog
3:00 AM 53.6 °F 51.8 °F 94% 30.12 in 0.2 mi Variable 1.2 mph - N/A Fog Fog
3:30 AM 53.6 °F 53.6 °F 100% 30.15 in 0.1 mi West 2.3 mph - N/A Fog Fog
4:00 AM 54 °F 54 °F 100% 30.16 in 0 mi Calm Calm - - Fog Heavy Fog
4:00 AM 55.4 °F 53.6 °F 94% 30.12 in 0.1 mi Variable 1.2 mph - N/A Fog Fog
4:30 AM 53.6 °F 53.6 °F 100% 30.15 in 0.1 mi Variable 1.2 mph - N/A Fog Fog
5:00 AM 54 °F 54 °F 98% 30.17 in 0 mi Calm Calm - - Fog Heavy Fog
5:00 AM 53.6 °F 53.6 °F 100% 30.15 in 0.1 mi Variable 1.2 mph - N/A Fog Fog
5:30 AM 53.6 °F 53.6 °F 100% 30.15 in 0.1 mi Variable 2.3 mph - N/A Fog Fog
6:00 AM 55 °F 54 °F 98% 30.17 in 0 mi East 2.2 mph - - Fog Heavy Fog
6:00 AM 55.4 °F 53.6 °F 94% 30.15 in 0.1 mi East 3.5 mph - N/A Fog Fog
6:30 AM 55.4 °F 55.4 °F 100% 30.15 in 0.2 mi Variable 2.3 mph - N/A Fog Fog
7:00 AM 56 °F 55 °F 97% 30.18 in 1 mi ESE 2.2 mph - - Fog Light Fog
7:00 AM 55.4 °F 55.4 °F 100% 30.15 in 1.2 mi Variable 2.3 mph - N/A   Mostly Cloudy
7:30 AM 57.2 °F 57.2 °F 100% 30.15 in 6.2 mi Variable 2.3 mph - N/A   Partly Cloudy
8:00 AM 60 °F 57 °F 88% 30.19 in 9 mi East 2.2 mph - -   Partly Cloudy
8:00 AM 59.0 °F 59.0 °F 100% 30.15 in 6.2 mi East 4.6 mph - N/A   Partly Cloudy
8:30 AM 60.8 °F 57.2 °F 88% 30.15 in 6.2 mi ENE 4.6 mph - N/A   Partly Cloudy
9:00 AM 64 °F 54 °F 63% 30.18 in 12 mi ESE 4.5 mph - -   Scattered Clouds
9:00 AM 62.6 °F 55.4 °F 77% 30.15 in 6.2 mi ESE 4.6 mph - N/A   Partly Cloudy
9:30 AM 64.4 °F 55.4 °F 73% 30.15 in 6.2 mi Variable 2.3 mph - N/A   Partly Cloudy
10:00 AM 66 °F 55 °F 58% 30.18 in 12 mi ESE 2.2 mph - -   Scattered Clouds
10:00 AM 66.2 °F 55.4 °F 68% 30.15 in 6.2 mi Variable 2.3 mph - N/A   Partly Cloudy
10:30 AM 68.0 °F 55.4 °F 64% 30.15 in 6.2 mi Variable 2.3 mph - N/A   Partly Cloudy
11:00 AM 69 °F 54 °F 49% 30.17 in 12 mi East 2.2 mph - -   Scattered Clouds
11:00 AM 68.0 °F 53.6 °F 60% 30.15 in 6.2 mi Variable 2.3 mph - N/A   Partly Cloudy
11:30 AM 69.8 °F 55.4 °F 60% 30.15 in 6.2 mi SE 4.6 mph - N/A   Partly Cloudy
12:00 PM 70 °F 50 °F 38% 30.17 in 12 mi East 2.2 mph - -   Scattered Clouds
12:00 PM 69.8 °F 53.6 °F 56% 30.15 in 6.2 mi Variable 2.3 mph - N/A   Partly Cloudy
12:30 PM 71.6 °F 48.2 °F 43% 30.15 in 6.2 mi Variable 4.6 mph - N/A   Partly Cloudy
1:00 PM 72 °F 49 °F 34% 30.15 in 12 mi Calm Calm - -   Scattered Clouds
1:00 PM 71.6 °F 50.0 °F 46% 30.15 in 6.2 mi SSE 5.8 mph - N/A   Partly Cloudy
1:30 PM 73.4 °F 53.6 °F 50% 30.15 in - Variable 4.6 mph - N/A   Clear
2:00 PM 73 °F 45 °F 26% 30.15 in 12 mi SSW 2.2 mph - -   Scattered Clouds
2:00 PM 73.4 °F 44.6 °F 36% 30.15 in - Variable 2.3 mph - N/A   Clear
2:30 PM 73.4 °F 42.8 °F 33% 30.15 in - WSW 4.6 mph - N/A   Clear
3:00 PM 74 °F 46 °F 26% 30.14 in 19 mi South 2.2 mph - -   Scattered Clouds
3:00 PM 73.4 °F 44.6 °F 36% 30.12 in - Variable 2.3 mph - N/A   Clear
3:30 PM 75.2 °F 48.2 °F 38% 30.12 in - Variable 2.3 mph - N/A   Clear
4:00 PM 74 °F 49 °F 30% 30.13 in 19 mi West 6.7 mph - -   Scattered Clouds
4:30 PM 75.2 °F 48.2 °F 38% 30.12 in - South 5.8 mph - N/A   Clear
5:00 PM 74 °F 48 °F 29% 30.12 in 19 mi Calm Calm - -   Scattered Clouds
5:00 PM 75.2 °F 48.2 °F 38% 30.12 in - SSE 4.6 mph - N/A   Clear
5:30 PM 75.2 °F 46.4 °F 36% 30.12 in - Variable 2.3 mph - N/A   Clear
6:00 PM 74 °F 48 °F 28% 30.12 in 19 mi West 2.2 mph - -   Clear
6:00 PM 75.2 °F 51.8 °F 44% 30.12 in - Variable 2.3 mph - N/A   Clear
6:30 PM 73.4 °F 46.4 °F 38% 30.12 in - Variable 1.2 mph - N/A   Clear
7:00 PM 73 °F 51 °F 36% 30.12 in 19 mi Calm Calm - -   Clear
7:30 PM 73.4 °F 48.2 °F 41% 30.12 in - Variable 2.3 mph - N/A   Clear
8:00 PM 71 °F 51 °F 38% 30.12 in 19 mi Calm Calm - -   Clear
8:00 PM 71.6 °F 51.8 °F 50% 30.12 in - Calm Calm - N/A   Clear
8:30 PM 69.8 °F 53.6 °F 56% 30.12 in - South 2.3 mph - N/A   Clear
9:00 PM 67 °F 53 °F 51% 30.13 in 19 mi Calm Calm - -   Clear
9:30 PM 66.2 °F 51.8 °F 60% 30.12 in - Variable 2.3 mph - N/A   Clear
10:00 PM 62 °F 52 °F 62% 30.15 in 19 mi Calm Calm - -   Clear
10:00 PM 60.8 °F 53.6 °F 77% 30.12 in - Variable 2.3 mph - N/A   Clear
10:30 PM 59.0 °F 53.6 °F 82% 30.12 in - SSE 1.2 mph - N/A   Clear
11:00 PM 60 °F 52 °F 67% 30.15 in 12 mi Calm Calm - -  
11:00 PM 60.8 °F 53.6 °F 77% 30.12 in - Variable 1.2 mph - N/A   Clear
11:30 PM 59.0 °F 51.8 °F 77% 30.12 in - SE 2.3 mph - N/A   Clear